Regional Weather Roundup
Issued by NWS

Home | Current Version | Previous Version | Graphics & Text | Print | Product List | Glossary On
Versions: 1 2 3 4 5 6 7 8 9 10 11 12 13 14 15 16 17 18 19 20 21 22 23 24 25 26 27 28 29 30 31 32 33 34 35 36 37 38 39 40 41 42 43 44 45 46 47 48 49 50
000
ASUS43 KMPX 261001
RWRMN
WEATHER ROUNDUP FOR MINNESOTA
NATIONAL WEATHER SERVICE TWIN CITIES/CHANHASSEN MN
400 AM CST WED NOV 26 2014


NOTE: "FAIR" INDICATES FEW OR NO CLOUDS BELOW 12,000 FEET WITH NO
SIGNIFICANT WEATHER AND/OR OBSTRUCTIONS TO VISIBILITY. N/A MEANS
CURRENT SKY AND/OR WEATHER CONDITIONS ARE NOT AVAILABLE.

MNZ060>063-068>070-261100-
   Twin Cities Metro

CITY           SKY/WX    TMP DP  RH WIND       PRES   REMARKS
TWIN CITIES    CLOUDY    24  15  68 E8        30.04R WCI  15
ST PAUL        MOCLDY    24  15  68 E8        30.06R WCI  15
CRYSTAL        CLOUDY    26  16  65 E7        30.03S WCI  18
LAKEVILLE      LGT SNOW  21  18  86 E7        30.02R WCI  13
EDEN PRAIRIE   CLOUDY    24  16  71 E8        30.02R WCI  15
SOUTH ST PAUL  CLOUDY    25  15  67 E6        30.04S WCI  18
LAKE ELMO      CLOUDY    25  18  74 E7        30.05S WCI  17
$$
MNZ001>005-007-008-013>017-022>024-027-028-261100-
   Northwest Minnesota

CITY           SKY/WX    TMP DP  RH WIND       PRES   REMARKS
BEMIDJI        LGT SNOW  15  11  87 N9        30.12R WCI   3
HALLOCK        CLOUDY    -2  -9  71 N15       30.31R WCI -22
ROSEAU         CLEAR      1  -2  85 N12       30.24R WCI -15
WARROAD        CLEAR      1  -2  85 NW8       30.22R WCI -12
THIEF RVR FALL CLOUDY     7   1  78 N13       30.21R WCI  -9
CROOKSTON      PTCLDY     7   1  78 N18       30.26R WCI -12
FOSSTON        CLOUDY    10   7  85 N15       30.16R WCI  -6
DETROIT LAKES  LGT SNOW  19  18  93 N9        30.11R WCI   9
MOORHEAD       MIX PCPN  14  14 100 N18G25    30.18R WCI  -3
PARK RAPIDS    LGT SNOW  17  13  84 N6        30.08R FOG     WCI   9
MAHNOMEN       FLURRIES  14  11  87 N16       30.13R WCI  -2
$$
MNZ006-009>011-018-025>026-261100-
   North Central Minnesota

CITY           SKY/WX    TMP DP  RH WIND       PRES   REMARKS
BAUDETTE       MOCLDY     7   3  84 N9        30.17R WCI  -7
FLAG ISLAND    CLEAR      0  -6  78 N10       30.22R WCI -17
INTL FALLS     LGT SNOW  13   8  81 N8        30.13S WCI   2
WASKISH        FLURRIES  12   9  85 CALM      30.15R
BIG FORK       LGT SNOW  16  10  79 CALM      30.11R
LONGVILLE      CLOUDY    18  12  79 CALM      30.09R
GRAND RAPIDS   CLOUDY    18  10  73 N8        30.07R WCI   7
CRANE LAKE     LGT SNOW  12  10  92 CALM      30.14R
ORR            LGT SNOW  12   9  85 CALM      30.07S
COOK           FLURRIES  16  10  79 CALM      30.10R
WALKER         LGT SNOW  17  13  84 N3        30.09R
$$
MNZ012-019>021-037-261100-
   Northeast Minnesota

CITY           SKY/WX    TMP DP  RH WIND       PRES   REMARKS
DULUTH         CLOUDY    20  10  65 CALM      30.05S
ELY            CLOUDY    10   9  92 CALM      30.07S
HIBBING        LGT SNOW  20  11  68 CALM      30.08R
EVELETH        LGT SNOW  21  14  73 CALM      30.08R
DULUTH HARBOR  CLOUDY    21  16  79 CALM      30.12S
TWO HARBORS    CLOUDY    21  14  73 CALM      30.07S
SILVER BAY     LGT SNOW  18  10  73 CALM      30.07S
GRAND MARAIS     N/A     20   8  60 N8        30.12F WCI  10
G MARAIS ARPRT MOCLDY     1  -4  78 N5        30.04S WCI  -8
$$
MNZ029>031-032-039>041-046>048-054>057-064-261100-
   West Central Minnesota

CITY           SKY/WX    TMP DP  RH WIND       PRES   REMARKS
FERGUS FALLS   FLURRIES  19  14  79 N7        30.13R WCI  10
WHEATON        LGT SNOW  19  18  93 N13G20    30.11R WCI   7
MORRIS         LGT SNOW  21  18  86 N13       30.04R WCI   9
ALEXANDRIA     CLOUDY    20  13  74 NE12      30.05R WCI   8
ELBOW LAKE     LGT SNOW  19  16  86 N13       30.07R WCI   6
WADENA         CLOUDY    18  12  79 N7        30.07R WCI   8
GLENWOOD       LGT SNOW  21  18  86 NE14      30.03R WCI   8
APPLETON       LGT SNOW  25  21  86 N15       30.03R WCI  12
BENSON         LGT SNOW  21  19  93 NE8       30.03R WCI  12
ORTONVILLE     LGT SNOW  21  18  86 N18       30.04R WCI   6
MADISON        LGT SNOW  28  27  93 NE13      30.01R VSB 1   WCI  18
WILLMAR        LGT SNOW  25  19  80 NE9       30.01R WCI  15
$$
MNZ033>034-036-042>043-049>051-058-059-261100-
   Central Minnesota

CITY           SKY/WX    TMP DP  RH WIND       PRES   REMARKS
ST CLOUD       CLOUDY    24  16  71 NE6       30.04R WCI  17
SAUK CENTRE    CLOUDY    21  16  80 NE7       30.04R WCI  12
PAYNESVILLE    FLURRIES  20  18  91 N8        30.02S WCI  10
AITKIN         CLOUDY    21  14  73 CALM      30.06R
PINE RIVER     FLURRIES  18  14  86 N3        30.12R
BRAINERD       LGT SNOW  19  13  77 NE5       30.07R WCI  12
STAPLES        FLURRIES  18  12  79 N5        30.08R WCI  11
LONG PRAIRIE   FLURRIES  19  14  79 N7        30.05R WCI  10
LITTLE FALLS   CLOUDY    21  14  73 CALM      30.06R
LITCHFIELD     LGT SNOW  25  21  86 NE8       30.01S WCI  16
BUFFALO        CLOUDY    24  18  77 NE6       30.04R WCI  17
MAPLE LAKE     CLOUDY    25  20  79 NE8       30.03S WCI  17
$$
MNZ037-044-045-052-053-261100-
   East Central Minnesota

CITY           SKY/WX    TMP DP  RH WIND       PRES   REMARKS
PRINCETON      CLOUDY    23  18  80 CALM      30.04S
MORA           CLOUDY    21  16  79 NE3       30.08R
CAMBRIDGE      CLOUDY    25  16  68 NE3       30.04S
RUSH CITY      CLOUDY    22  18  83 NE6       30.06F WCI  14
MOOSE LAKE     CLOUDY    19  14  79 CALM      30.05F
HINCKLEY       CLOUDY    21  19  93 CALM      30.08R
CLOQUET        CLOUDY    19  12  73 CALM      30.06S
MCGREGOR       CLOUDY    19  16  86 CALM      30.07S
$$
MNZ071>073-080-081-089-090-097-098-261100-
   Southwest Minnesota

CITY           SKY/WX    TMP DP  RH WIND       PRES   REMARKS
MONTEVIDEO     LGT SNOW  25  23  93 E13       30.01R WCI  13
GRANITE FALLS  LGT SNOW  25  22  91 NE10      30.00R WCI  14
CANBY          LGT SNOW  25  24  96 N12       30.00R VSB 1   WCI  14
MARSHALL       CLOUDY    27  21  80 NE13      29.95R WCI  16
REDWOOD FALLS  LGT SNOW  25  22  88 NE8       29.97R VSB 3/4 WCI  16
OLIVIA         LGT SNOW  27  21  80 NE12      29.98R WCI  16
PIPESTONE      CLOUDY    27  27 100 E6        29.88R WCI  20
WINDOM         FLURRIES  27  25  93 CALM      29.90R
WORTHINGTON    CLOUDY    27  25  93 E8        29.87S WCI  18
JACKSON        LGT SNOW  28  25  86 E8        29.89R WCI  20
TRACY          LGT SNOW  26  25  96 NE9       29.92R WCI  17
SLAYTON        CLOUDY    26  26 100 NE7       29.89R FOG     WCI  18
$$
MNZ065>067-074>077-082>085-091>093-261100-
   South Central Minnesota

CITY           SKY/WX    TMP DP  RH WIND       PRES   REMARKS
MANKATO        CLOUDY    27  19  74 SE13      29.96S WCI  16
NEW ULM        LGT SNOW  25  21  86 E8        29.95S WCI  16
ST JAMES       LGT SNOW  27  25  93 E8        29.94R VSB 1   WCI  18
FAIRMONT       CLOUDY    25  21  86 SE15      29.90S VSB 1   WCI  12
GLENCOE        MOCLDY    26  20  80 E6        29.99S WCI  19
FARIBAULT      CLOUDY    25  21  86 E6        29.99S WCI  18
OWATONNA       CLOUDY    27  21  80 SE9       29.97S WCI  17
WASECA         LGT SNOW  25  19  80 SE13      29.97S WCI  13
ALBERT LEA     LGT SNOW  25  21  86 SE9       29.95S WCI  15
$$
MNZ078>079-086>088-094>096-261100-
   Southeast Minnesota

CITY           SKY/WX    TMP DP  RH WIND       PRES   REMARKS
ROCHESTER      CLOUDY    20  16  84 SE10      30.00F WCI   9
RED WING       MOCLDY    21  14  73 E6        30.04F WCI  14
STANTON        LGT SNOW  24  18  80 E5        30.00S WCI  18
DODGE CENTER   LGT SNOW  23  21  93 SE9       29.98S WCI  13
WINONA         CLEAR     19  18  93 SE5       30.08F WCI  13
AUSTIN         LGT SNOW  25  21  86 SE10      29.97F WCI  15
PRESTON        CLOUDY    19  16  87 SE8       30.01F WCI   9
$$
ABBREVIATIONS USED IN REMARKS
   TC - TEMPERATURES IN CELSIUS
  WCI - WIND CHILL INDEX
   HX - HEAT INDEX
  VSB - VISIBILITY
$$



USA.gov is the U.S. government's official web portal to all federal, state and local government web resources and services.